English version
lugares datos climáticos artículos

datos de Mairena del Aljarafe, Sevilla, España
Año Mes Dia Mostrar

  Fecha       hora        Temp.ext.    Hum.ext.  Dir.Viento   Vel.Viento  Presion al NM   T.int. Prec.hoy 

   13-06-2021    08:05      21.3º(+1.1)     72%      292 (W)      1.6 km/h    1017.5 hpa     27.9º    0.0 mm
   13-06-2021    08:00      21.2º(+1.0)     72%      315(NW)      1.6 km/h    1017.3 hpa     27.8º    0.0 mm
   13-06-2021    07:55      21.1º(+0.9)     72%      315(NW)      1.6 km/h    1017.3 hpa     27.8º    0.0 mm
   13-06-2021    07:50      21.0º(+0.8)     73%      315(NW)      3.2 km/h    1017.3 hpa     27.8º    0.0 mm
   13-06-2021    07:45      20.9º(+0.8)     73%      337(NW)      3.2 km/h    1017.2 hpa     27.8º    0.0 mm
   13-06-2021    07:40      20.9º(+0.8)     73%      315(NW)      3.2 km/h    1017.1 hpa     27.8º    0.0 mm
   13-06-2021    07:35      20.8º(+0.7)     73%      337(NW)      3.2 km/h    1017.1 hpa     27.9º    0.0 mm
   13-06-2021    07:30      20.8º(+0.8)     73%      315(NW)      1.6 km/h    1017.2 hpa     27.9º    0.0 mm
   13-06-2021    07:25      20.8º(+0.7)     73%      315(NW)      1.6 km/h    1017.1 hpa     27.9º    0.0 mm
   13-06-2021    07:20      20.8º(+0.7)     72%      315(NW)      1.6 km/h    1017.1 hpa     27.9º    0.0 mm
   13-06-2021    07:15      20.8º(+0.7)     72%      315(NW)      1.6 km/h    1017.1 hpa     27.9º    0.0 mm
   13-06-2021    07:10      20.8º(+0.7)     73%      315(NW)      1.6 km/h    1017.1 hpa     27.9º    0.0 mm
   13-06-2021    07:05      20.8º(+0.7)     72%      315(NW)      1.6 km/h    1017.0 hpa     27.9º    0.0 mm
   13-06-2021    07:00      20.9º(+0.8)     72%         -         0.0 km/h    1016.9 hpa     27.9º    0.0 mm
   13-06-2021    06:55      20.9º(+0.9)     72%      315(NW)      1.6 km/h    1016.7 hpa     27.9º    0.0 mm
   13-06-2021    06:50      21.0º(+1.1)     72%      315(NW)      1.6 km/h    1016.6 hpa     27.9º    0.0 mm
   13-06-2021    06:45      21.1º(+1.1)     72%      315(NW)      1.6 km/h    1016.6 hpa     27.9º    0.0 mm
   13-06-2021    06:40      21.1º(+1.0)     72%      315(NW)      1.6 km/h    1016.6 hpa     27.9º    0.0 mm
   13-06-2021    06:35      21.2º(+1.1)     72%      315(NW)      1.6 km/h    1016.6 hpa     27.9º    0.0 mm
   13-06-2021    06:30      21.2º(+1.1)     72%         -         0.0 km/h    1016.6 hpa     27.9º    0.0 mm
   13-06-2021    06:25      21.1º(+1.0)     72%      315(NW)      1.6 km/h    1016.6 hpa     27.9º    0.0 mm
   13-06-2021    06:20      21.1º(+0.9)     72%      315(NW)      3.2 km/h    1016.6 hpa     28.1º    0.0 mm
   13-06-2021    06:15      21.1º(+0.9)     72%      315(NW)      3.2 km/h    1016.6 hpa     28.1º    0.0 mm
   13-06-2021    06:10      21.0º(+0.8)     72%      315(NW)      1.6 km/h    1016.6 hpa     28.1º    0.0 mm
   13-06-2021    06:05      21.0º(+0.8)     71%      315(NW)      3.2 km/h    1016.6 hpa     28.1º    0.0 mm
   13-06-2021    06:00      21.1º(+0.9)     71%      315(NW)      3.2 km/h    1016.7 hpa     28.1º    0.0 mm
   13-06-2021    05:55      21.1º(+0.9)     71%      315(NW)      3.2 km/h    1016.7 hpa     28.1º    0.0 mm
   13-06-2021    05:50      21.1º(+0.9)     71%      315(NW)      1.6 km/h    1016.8 hpa     28.1º    0.0 mm
   13-06-2021    05:45      21.2º(+1.1)     71%      337(NW)      4.8 km/h    1016.7 hpa     28.1º    0.0 mm
   13-06-2021    05:40      21.2º(+1.0)     70%      337(NW)      3.2 km/h    1016.7 hpa     28.1º    0.0 mm
   13-06-2021    05:35      21.2º(+1.0)     70%      337(NW)      3.2 km/h    1016.8 hpa     28.1º    0.0 mm
   13-06-2021    05:30      21.3º(+1.1)     70%      337(NW)      4.8 km/h    1016.9 hpa     28.1º    0.0 mm
   13-06-2021    05:25      21.4º(+1.2)     70%      337(NW)      4.8 km/h    1016.8 hpa     28.1º    0.0 mm
   13-06-2021    05:20      21.5º(+1.2)     70%      337(NW)      4.8 km/h    1016.8 hpa     28.2º    0.0 mm
   13-06-2021    05:15      21.6º(+1.1)     69%      337(NW)      4.8 km/h    1016.8 hpa     28.2º    0.0 mm
   13-06-2021    05:10      21.7º(+1.2)     69%      000 (N)      4.8 km/h    1016.8 hpa     28.2º    0.0 mm
   13-06-2021    05:05      21.7º(+1.1)     70%      000 (N)      3.2 km/h    1016.9 hpa     28.2º    0.0 mm
   13-06-2021    05:00      21.7º(+1.1)     70%      000 (N)      1.6 km/h    1016.8 hpa     28.2º    0.0 mm
   13-06-2021    04:55      21.7º(+1.2)     70%      000 (N)      3.2 km/h    1016.7 hpa     28.2º    0.0 mm
   13-06-2021    04:50      21.7º(+1.3)     70%      000 (N)      4.8 km/h    1016.7 hpa     28.2º    0.0 mm
   13-06-2021    04:45      21.7º(+1.3)     70%      000 (N)      3.2 km/h    1016.7 hpa     28.2º    0.0 mm
   13-06-2021    04:40      21.7º(+1.4)     70%      000 (N)      1.6 km/h    1016.8 hpa     28.2º    0.0 mm
   13-06-2021    04:35      21.7º(+1.4)     70%      000 (N)      3.2 km/h    1016.7 hpa     28.2º    0.0 mm
   13-06-2021    04:30      21.7º(+1.5)     70%      000 (N)      3.2 km/h    1016.8 hpa     28.2º    0.0 mm
   13-06-2021    04:25      21.7º(+1.5)     70%      000 (N)      1.6 km/h    1016.9 hpa     28.2º    0.0 mm
   13-06-2021    04:20      21.7º(+1.6)     70%      000 (N)      3.2 km/h    1016.8 hpa     28.2º    0.0 mm
   13-06-2021    04:15      21.7º(+1.5)     70%      000 (N)      4.8 km/h    1016.8 hpa     28.2º    0.0 mm
   13-06-2021    04:10      21.7º(+1.4)     70%      000 (N)      4.8 km/h    1016.9 hpa     28.2º    0.0 mm
   13-06-2021    04:05      21.7º(+1.3)     70%      000 (N)      3.2 km/h    1016.8 hpa     28.2º    0.0 mm
   13-06-2021    04:00      21.7º(+1.2)     70%      000 (N)      1.6 km/h    1016.8 hpa     28.2º    0.0 mm
   13-06-2021    03:55      21.7º(+0.8)     70%      000 (N)      1.6 km/h    1016.9 hpa     28.2º    0.0 mm
   13-06-2021    03:50      21.7º(+0.5)     70%      000 (N)      3.2 km/h    1017.0 hpa     28.2º    0.0 mm
   13-06-2021    03:45      21.7º(+0.3)     70%      000 (N)      3.2 km/h    1017.1 hpa     28.2º    0.0 mm
   13-06-2021    03:40      21.7º(+0.1)     70%      000 (N)      3.2 km/h    1017.0 hpa     28.2º    0.0 mm
   13-06-2021    03:35      21.7º(+0.1)     70%      000 (N)      4.8 km/h    1017.1 hpa     28.3º    0.0 mm
   13-06-2021    03:30      21.8º(+0.1)     70%      000 (N)      4.8 km/h    1017.0 hpa     28.3º    0.0 mm
   13-06-2021    03:25      21.8º(+0.2)     70%      000 (N)      1.6 km/h    1017.0 hpa     28.3º    0.0 mm
   13-06-2021    03:20      21.8º(+0.3)     70%      000 (N)      4.8 km/h    1017.1 hpa     28.3º    0.0 mm
   13-06-2021    03:15      21.8º(+0.4)     70%      000 (N)      4.8 km/h    1017.1 hpa     28.3º    0.0 mm
   13-06-2021    03:10      21.7º(+0.4)     70%      000 (N)      6.4 km/h    1017.1 hpa     28.3º    0.0 mm
   13-06-2021    03:05      21.6º(+0.4)     70%      000 (N)      6.4 km/h    1017.1 hpa     28.4º    0.0 mm
   13-06-2021    03:00      21.6º(+0.4)     69%      000 (N)      4.8 km/h    1017.2 hpa     28.4º    0.0 mm
   13-06-2021    02:55      21.6º(+0.4)     69%      337(NW)      4.8 km/h    1017.2 hpa     28.4º    0.0 mm
   13-06-2021    02:50      21.7º(+0.5)     69%      292 (W)      4.8 km/h    1017.0 hpa     28.4º    0.0 mm
   13-06-2021    02:45      21.8º(+0.6)     69%      270 (W)      8.0 km/h    1016.7 hpa     28.4º    0.0 mm
   13-06-2021    02:40      21.9º(+0.7)     68%      270 (W)      8.0 km/h    1016.8 hpa     28.4º    0.0 mm
   13-06-2021    02:35      21.9º(+0.7)     68%      270 (W)      6.4 km/h    1016.9 hpa     28.4º    0.0 mm
   13-06-2021    02:30      22.0º(+0.8)     68%      270 (W)      6.4 km/h    1017.0 hpa     28.4º    0.0 mm
   13-06-2021    02:25      22.1º(+0.9)     67%      270 (W)      6.4 km/h    1017.0 hpa     28.4º    0.0 mm
   13-06-2021    02:20      22.1º(+1.0)     67%      270 (W)      4.8 km/h    1017.1 hpa     28.4º    0.0 mm
   13-06-2021    02:15      22.2º(+1.1)     67%      270 (W)      4.8 km/h    1017.2 hpa     28.4º    0.0 mm
   13-06-2021    02:10      22.3º(+1.2)     67%      292 (W)      3.2 km/h    1017.2 hpa     28.4º    0.0 mm
   13-06-2021    02:05      22.3º(+1.3)     67%      292 (W)      3.2 km/h    1017.2 hpa     28.4º    0.0 mm
   13-06-2021    02:00      22.3º(+1.3)     67%      315(NW)      3.2 km/h    1017.3 hpa     28.4º    0.0 mm
   13-06-2021    01:55      22.3º(----)     67%      315(NW)      3.2 km/h    1017.3 hpa     28.4º    0.0 mm
   13-06-2021    01:50      22.3º(----)     67%      315(NW)      4.8 km/h    1017.3 hpa     28.4º    0.0 mm
   13-06-2021    01:45      22.3º(----)     67%      337(NW)      3.2 km/h    1017.4 hpa     28.4º    0.0 mm
   13-06-2021    01:40      22.4º(----)     67%      337(NW)      4.8 km/h    1017.4 hpa     28.4º    0.0 mm
   13-06-2021    01:35      22.4º(----)     66%      270 (W)      1.6 km/h    1017.3 hpa     28.4º    0.0 mm
   13-06-2021    01:30      22.4º(----)     66%      270 (W)      3.2 km/h    1017.2 hpa     28.4º    0.0 mm
   13-06-2021    01:25      22.5º(----)     66%      270 (W)      4.8 km/h    1017.3 hpa     28.4º    0.0 mm
   13-06-2021    01:20      22.6º(----)     66%      270 (W)      3.2 km/h    1017.3 hpa     28.4º    0.0 mm
   13-06-2021    01:15      22.6º(----)     66%      270 (W)      4.8 km/h    1017.3 hpa     28.4º    0.0 mm
   13-06-2021    01:10      22.7º(----)     66%      270 (W)      4.8 km/h    1017.4 hpa     28.5º    0.0 mm
   13-06-2021    01:05      22.8º(----)     66%      292 (W)      4.8 km/h    1017.4 hpa     28.5º    0.0 mm
   13-06-2021    01:00      22.8º(----)     65%      292 (W)      4.8 km/h    1017.4 hpa     28.5º    0.0 mm
   13-06-2021    00:55      22.8º(----)     65%      270 (W)      4.8 km/h    1017.5 hpa     28.5º    0.0 mm
   13-06-2021    00:50      22.8º(----)     65%      270 (W)      4.8 km/h    1017.3 hpa     28.5º    0.0 mm
   13-06-2021    00:45      22.9º(----)     65%      270 (W)      8.0 km/h    1017.3 hpa     28.5º    0.0 mm
   13-06-2021    00:40      22.9º(----)     65%      292 (W)      6.4 km/h    1017.3 hpa     28.5º    0.0 mm
   13-06-2021    00:35      22.9º(----)     65%      270 (W)      4.8 km/h    1017.3 hpa     28.5º    0.0 mm
   13-06-2021    00:30      22.9º(----)     65%      270 (W)      8.0 km/h    1017.2 hpa     28.5º    0.0 mm
   13-06-2021    00:25      23.1º(----)     64%      270 (W)      6.4 km/h    1017.2 hpa     28.5º    0.0 mm
   13-06-2021    00:20      23.1º(----)     64%      270 (W)      6.4 km/h    1017.2 hpa     28.6º    0.0 mm
   13-06-2021    00:15      23.2º(----)     64%      270 (W)      4.8 km/h    1017.2 hpa     28.6º    0.0 mm
   13-06-2021    00:10      23.2º(----)     64%      270 (W)      9.7 km/h    1017.1 hpa     28.6º    0.0 mm
   13-06-2021    00:05      23.3º(----)     63%      270 (W)      9.7 km/h    1017.1 hpa     28.6º    0.0 mm
   13-06-2021    00:00      23.4º(----)     63%      270 (W)      8.0 km/h    1017.1 hpa     28.6º    0.0 mm